Hot Springs, VA

4:06 AM EDT on July 21, 2017 (GMT -0400)
Ingalls

Weather History for KHSP - May, 2013

Change the Weather History Date:

Wednesday, May 29, 2013

  Actual Average Record
Temperature  
Mean Temperature 68 °F -  
Max Temperature 77 °F 64 °F 82 °F (2006)
Min Temperature 60 °F 50 °F 39 °F (1997)
Cooling Degree Days 4    
Growing Degree Days 18 (Base 50)    
Moisture  
Dew Point 57 °F    
Average Humidity 70    
Maximum Humidity 88    
Minimum Humidity 44    
Precipitation  
Precipitation 0.00 in - - ()
Sea Level Pressure  
Sea Level Pressure 30.32 in    
Wind  
Wind Speed 13 mph (WSW)    
Max Wind Speed 17 mph    
Max Gust Speed 23 mph    
Visibility 10 miles    
Events      
Averages and records for this station are not official NWS values.
T = Trace of Precipitation, MM = Missing Value Source: NWS Daily Summary

Daily Weather History Graph

Daily Weather History Graph

Search for Another Location

Airport or City:

Trip Planner

Search our weather history database for the weather conditions in past years. The results will help you decide how hot, cold, wet, or windy it might be!

Date:

Astronomy

May. 29, 2013 Rise Set
Actual Time 5:59 AM EDT 8:34 PM EDT
Civil Twilight 5:29 AM EDT 9:04 PM EDT
Nautical Twilight 4:51 AM EDT 9:42 PM EDT
Astronomical Twilight 4:08 AM EDT 10:25 PM EDT
Moon No Moon Rise 10:54 AM EDT (5/29)
Length of Visible Light 15h 35m
Length of Day
14h 34m
Waning Gibbous, 73% of the Moon is Illuminated
May 29
Waning Gibbous
May 31
Last Quarter
Jun 8
New
Jun 16
First Quarter
Jun 23
Full

Hourly Weather History & Observations

Time (EDT) Temp. Dew Point Humidity Pressure Visibility Wind Dir Wind Speed Gust Speed Precip Events Conditions
12:15 AM 62.6 °F 57.2 °F 82% 30.29 in 10.0 mi SW 15.0 mph 21.9 mph N/A   Clear
12:35 AM 62.6 °F 57.2 °F 82% 30.29 in 10.0 mi SW 15.0 mph 19.6 mph N/A   Clear
12:55 AM 62.6 °F 57.2 °F 82% 30.29 in 10.0 mi WSW 17.3 mph 23.0 mph N/A   Clear
1:15 AM 62.6 °F 57.2 °F 82% 30.29 in 10.0 mi WSW 17.3 mph - N/A   Clear
1:35 AM 60.8 °F 57.2 °F 88% 30.28 in 10.0 mi WSW 13.8 mph - N/A   Clear
1:55 AM 60.8 °F 57.2 °F 88% 30.29 in 10.0 mi WSW 13.8 mph - N/A   Clear
2:15 AM 60.8 °F 57.2 °F 88% 30.28 in 10.0 mi WSW 13.8 mph - N/A   Clear
2:35 AM 60.8 °F 57.2 °F 88% 30.29 in 10.0 mi West 13.8 mph - N/A   Clear
2:55 AM 60.8 °F 57.2 °F 88% 30.28 in 10.0 mi West 13.8 mph - N/A   Clear
3:15 AM 60.8 °F 57.2 °F 88% 30.28 in 10.0 mi WSW 12.7 mph - N/A   Clear
3:35 AM 60.8 °F 57.2 °F 88% 30.29 in 10.0 mi West 16.1 mph - N/A   Clear
3:55 AM 60.8 °F 57.2 °F 88% 30.29 in 10.0 mi West 13.8 mph - N/A   Clear
4:15 AM 60.8 °F 57.2 °F 88% 30.29 in 10.0 mi West 12.7 mph - N/A   Clear
4:35 AM 60.8 °F 57.2 °F 88% 30.29 in 10.0 mi West 13.8 mph - N/A   Clear
4:55 AM 60.8 °F 57.2 °F 88% 30.29 in 10.0 mi West 13.8 mph - N/A   Clear
5:15 AM 60.8 °F 57.2 °F 88% 30.29 in 10.0 mi West 12.7 mph - N/A   Clear
5:35 AM 60.8 °F 55.4 °F 82% 30.29 in 10.0 mi West 12.7 mph - N/A   Clear
5:55 AM 60.8 °F 55.4 °F 82% 30.29 in 10.0 mi West 12.7 mph - N/A   Clear
6:15 AM 60.8 °F 55.4 °F 82% 30.29 in 10.0 mi West 13.8 mph - N/A   Clear
6:35 AM 60.8 °F 55.4 °F 82% 30.29 in 10.0 mi West 12.7 mph - N/A   Clear
6:55 AM 60.8 °F 55.4 °F 82% 30.30 in 10.0 mi West 13.8 mph - N/A   Clear
7:15 AM 60.8 °F 55.4 °F 82% 30.31 in 10.0 mi West 15.0 mph 18.4 mph N/A   Clear
7:35 AM 60.8 °F 55.4 °F 82% 30.31 in 10.0 mi West 15.0 mph - N/A   Clear
7:55 AM 62.6 °F 55.4 °F 77% 30.31 in 10.0 mi West 15.0 mph - N/A   Clear
8:15 AM 62.6 °F 57.2 °F 82% 30.32 in 10.0 mi West 15.0 mph - N/A   Clear
8:35 AM 62.6 °F 55.4 °F 77% 30.32 in 10.0 mi West 17.3 mph - N/A   Clear
8:55 AM 64.4 °F 57.2 °F 77% 30.33 in 10.0 mi WNW 15.0 mph 18.4 mph N/A   Clear
9:15 AM 64.4 °F 57.2 °F 77% 30.34 in 10.0 mi West 16.1 mph - N/A   Clear
9:35 AM 64.4 °F 57.2 °F 77% 30.34 in 10.0 mi West 16.1 mph - N/A   Clear
9:55 AM 66.2 °F 57.2 °F 73% 30.34 in 10.0 mi West 15.0 mph 19.6 mph N/A   Clear
10:15 AM 66.2 °F 57.2 °F 73% 30.35 in 10.0 mi West 15.0 mph 20.7 mph N/A   Clear
10:35 AM 68.0 °F 57.2 °F 68% 30.35 in 10.0 mi WNW 15.0 mph 19.6 mph N/A   Clear
10:55 AM 69.8 °F 57.2 °F 64% 30.34 in 10.0 mi WNW 16.1 mph - N/A   Clear
11:15 AM 69.8 °F 57.2 °F 64% 30.35 in 10.0 mi WNW 11.5 mph 19.6 mph N/A   Clear
11:35 AM 71.6 °F 57.2 °F 60% 30.35 in 10.0 mi NW 10.4 mph 17.3 mph N/A   Clear
11:55 AM 71.6 °F 57.2 °F 60% 30.35 in 10.0 mi WSW 10.4 mph 17.3 mph N/A   Clear
12:15 PM 71.6 °F 55.4 °F 57% 30.35 in 10.0 mi West 8.1 mph 12.7 mph N/A   Scattered Clouds
12:35 PM 71.6 °F 55.4 °F 57% 30.35 in 10.0 mi West 9.2 mph - N/A   Scattered Clouds
12:55 PM 73.4 °F 55.4 °F 53% 30.35 in 10.0 mi WSW 9.2 mph - N/A   Clear
1:15 PM 73.4 °F 55.4 °F 53% 30.35 in 10.0 mi West 10.4 mph 16.1 mph N/A   Scattered Clouds
1:35 PM 73.4 °F 57.2 °F 57% 30.35 in 10.0 mi West 10.4 mph - N/A   Scattered Clouds
1:55 PM 73.4 °F 55.4 °F 53% 30.35 in 10.0 mi West 6.9 mph - N/A   Scattered Clouds
2:15 PM 75.2 °F 55.4 °F 50% 30.35 in 10.0 mi West 8.1 mph - N/A   Scattered Clouds
2:35 PM 73.4 °F 53.6 °F 50% 30.34 in 10.0 mi WSW 3.5 mph - N/A   Scattered Clouds
2:55 PM 73.4 °F 55.4 °F 53% 30.34 in 10.0 mi WNW 5.8 mph - N/A   Scattered Clouds
3:15 PM 75.2 °F 53.6 °F 47% 30.34 in 10.0 mi South 9.2 mph - N/A   Scattered Clouds
3:35 PM 75.2 °F 53.6 °F 47% 30.33 in 10.0 mi West 4.6 mph 16.1 mph N/A   Clear
3:55 PM 77.0 °F 53.6 °F 44% 30.33 in 10.0 mi SSW 9.2 mph 17.3 mph N/A   Clear
4:15 PM 77.0 °F 53.6 °F 44% 30.32 in 10.0 mi WSW 9.2 mph 17.3 mph N/A   Scattered Clouds
4:35 PM 75.2 °F 53.6 °F 47% 30.32 in 10.0 mi SW 9.2 mph 19.6 mph N/A   Clear
4:55 PM 75.2 °F 53.6 °F 47% 30.31 in 10.0 mi WSW 10.4 mph 17.3 mph N/A   Clear
5:15 PM 75.2 °F 53.6 °F 47% 30.31 in 10.0 mi WSW 4.6 mph 9.2 mph N/A   Clear
5:35 PM 75.2 °F 53.6 °F 47% 30.32 in 10.0 mi SW 10.4 mph - N/A   Clear
5:55 PM 75.2 °F 51.8 °F 44% 30.32 in 10.0 mi West 10.4 mph - N/A   Scattered Clouds
6:15 PM 75.2 °F 55.4 °F 50% 30.32 in 10.0 mi South 6.9 mph 17.3 mph N/A   Scattered Clouds
6:35 PM 73.4 °F 55.4 °F 53% 30.32 in 10.0 mi South 8.1 mph - N/A   Scattered Clouds
6:55 PM 73.4 °F 55.4 °F 53% 30.32 in 10.0 mi SSW 8.1 mph - N/A   Scattered Clouds
7:15 PM 71.6 °F 57.2 °F 60% 30.32 in 10.0 mi South 8.1 mph - N/A   Mostly Cloudy
7:35 PM 69.8 °F 59.0 °F 68% 30.32 in 10.0 mi South 5.8 mph - N/A   Scattered Clouds
7:55 PM 69.8 °F 60.8 °F 73% 30.32 in 10.0 mi South 9.2 mph - N/A   Clear
8:15 PM 69.8 °F 60.8 °F 73% 30.32 in 10.0 mi South 6.9 mph - N/A   Clear
8:35 PM 68.0 °F 60.8 °F 78% 30.32 in 10.0 mi South 8.1 mph - N/A   Clear
8:55 PM 68.0 °F 60.8 °F 78% 30.32 in 10.0 mi South 10.4 mph - N/A   Clear
9:15 PM 66.2 °F 60.8 °F 83% 30.32 in 10.0 mi South 8.1 mph - N/A   Clear
9:35 PM 66.2 °F 59.0 °F 78% 30.32 in 10.0 mi South 9.2 mph - N/A   Clear
9:55 PM 66.2 °F 59.0 °F 78% 30.33 in 10.0 mi South 10.4 mph - N/A   Clear
10:15 PM 66.2 °F 57.2 °F 73% 30.33 in 10.0 mi South 8.1 mph - N/A   Clear
10:35 PM 66.2 °F 57.2 °F 73% 30.33 in 10.0 mi South 6.9 mph - N/A   Clear
10:55 PM 64.4 °F 57.2 °F 77% 30.34 in 10.0 mi SSW 4.6 mph - N/A   Clear
11:15 PM 64.4 °F 57.2 °F 77% 30.34 in 10.0 mi SW 8.1 mph - N/A   Clear
11:35 PM 64.4 °F 57.2 °F 77% 30.33 in 10.0 mi SSW 5.8 mph - N/A   Clear
11:55 PM 64.4 °F 57.2 °F 77% 30.34 in 10.0 mi SSW 6.9 mph - N/A   Clear